Champaign, IL

3:34 AM CDT on July 17, 2019 (GMT -0500)
Univ Of Illinois-Willard

Weather History for KCMI - May, 2019

Change the Weather History Date:

Saturday, May 4, 2019

  Actual Average Record
Temperature  
Mean Temperature 56 °F 59 °F  
Max Temperature 65 °F 71 °F 82 °F (1999)
Min Temperature 46 °F 47 °F 30 °F (2005)
Degree Days  
Heating Degree Days 9 7  
Month to date heating degree days 28 30  
Since 1 July heating degree days 5791 5694  
Cooling Degree Days 0 1  
Month to date cooling degree days 0 4  
Year to date cooling degree days 3 15  
Growing Degree Days 4 (Base 50)    
Moisture  
Dew Point 48 °F    
Average Humidity 80    
Maximum Humidity 100    
Minimum Humidity 60    
Precipitation  
Precipitation 0.04 in 0.17 in 1.37 in (2017)
Month to date precipitation 0.37 0.65  
Year to date precipitation 12.51 11.26  
Sea Level Pressure  
Sea Level Pressure 29.96 in    
Wind  
Wind Speed 9 mph (NNE)    
Max Wind Speed 16 mph    
Max Gust Speed 21 mph    
Visibility 8 miles    
Events Rain    
T = Trace of Precipitation, MM = Missing Value Source: NWS Daily Summary

Daily Weather History Graph

Daily Weather History Graph

Search for Another Location

Airport or City:

Astronomy

May. 04, 2019 Rise Set
Actual Time 5:49 AM CDT 7:50 PM CDT
Civil Twilight 5:20 AM CDT 8:20 PM CDT
Nautical Twilight 4:43 AM CDT 8:56 PM CDT
Astronomical Twilight 4:04 AM CDT 9:36 PM CDT
Moon 6:00 AM CDT (5/4) 7:40 PM CDT (5/4)
Length of Visible Light 15h 00m
Length of Day
14h 01m
Waning Crescent, 0% of the Moon is Illuminated
May 4
Waning Crescent
May 4
New
May 11
First Quarter
May 18
Full
May 26
Last Quarter

Hourly Weather History & Observations

Time (CDT) Temp. Dew Point Humidity Pressure Visibility Wind Dir Wind Speed Gust Speed Precip Events Conditions
12:53 AM 50.0 °F 46.9 °F 89% 29.99 in 10.0 mi NNE 8.1 mph - N/A   Overcast
1:53 AM 50.0 °F 46.9 °F 89% 29.98 in 10.0 mi NNE 8.1 mph - N/A   Overcast
2:53 AM 48.9 °F 46.9 °F 93% 29.99 in 7.0 mi North 6.9 mph - N/A   Overcast
3:53 AM 48.9 °F 46.9 °F 93% 29.97 in 7.0 mi North 9.2 mph - 0.00 in Rain Light Rain
4:46 AM 48.0 °F 46.9 °F 96% 29.98 in 7.0 mi North 9.2 mph - 0.00 in Rain Light Rain
4:53 AM 48.0 °F 46.9 °F 96% 29.99 in 6.0 mi North 8.1 mph - 0.00 in Rain Light Rain
5:50 AM 48.2 °F 46.4 °F 93% 29.99 in 5.0 mi North 9.2 mph - 0.02 in Rain Light Rain
5:53 AM 46.9 °F 46.9 °F 100% 30.00 in 5.0 mi North 9.2 mph - 0.02 in Rain Light Rain
6:53 AM 46.9 °F 46.0 °F 97% 30.00 in 3.0 mi NE 11.5 mph - 0.02 in   Overcast
7:53 AM 48.0 °F 46.9 °F 96% 30.01 in 5.0 mi NNE 8.1 mph - N/A   Overcast
8:53 AM 48.9 °F 48.0 °F 97% 29.99 in 5.0 mi NNE 13.8 mph - N/A   Overcast
9:00 AM 50.0 °F 48.0 °F 93% 29.98 in 5.0 mi NNE 11.5 mph - N/A   Overcast
9:13 AM 50.0 °F 48.0 °F 93% 29.98 in 5.0 mi NNE 11.5 mph - N/A   Overcast
9:53 AM 51.1 °F 50.0 °F 96% 29.99 in 6.0 mi NNE 12.7 mph - N/A   Overcast
10:53 AM 53.1 °F 51.1 °F 93% 30.00 in 6.0 mi NE 11.5 mph - N/A   Overcast
11:41 AM 55.0 °F 50.0 °F 83% 29.99 in 9.0 mi NNE 11.5 mph - N/A   Overcast
11:53 AM 55.0 °F 50.0 °F 83% 29.99 in 10.0 mi NE 11.5 mph - N/A   Overcast
12:11 PM 55.9 °F 51.1 °F 84% 29.98 in 10.0 mi NE 10.4 mph - N/A   Overcast
12:53 PM 57.9 °F 50.0 °F 75% 29.98 in 10.0 mi NNE 11.5 mph - N/A   Overcast
1:53 PM 61.0 °F 50.0 °F 67% 29.96 in 10.0 mi NNE 10.4 mph - N/A   Overcast
2:16 PM 62.1 °F 48.9 °F 62% 29.95 in 10.0 mi ENE 11.5 mph - N/A   Mostly Cloudy
2:53 PM 62.1 °F 48.9 °F 62% 29.94 in 10.0 mi ENE 10.4 mph - N/A   Mostly Cloudy
3:53 PM 63.0 °F 48.9 °F 60% 29.92 in 10.0 mi NE 9.2 mph - N/A   Scattered Clouds
4:53 PM 62.1 °F 48.0 °F 60% 29.91 in 10.0 mi NE 11.5 mph - N/A   Scattered Clouds
5:53 PM 63.0 °F 48.0 °F 58% 29.91 in 10.0 mi NNE 9.2 mph - N/A   Clear
6:53 PM 60.1 °F 48.0 °F 64% 29.90 in 10.0 mi NNE 8.1 mph - N/A   Clear
7:53 PM 57.9 °F 46.9 °F 67% 29.89 in 10.0 mi NE 6.9 mph - N/A   Clear
8:53 PM 55.0 °F 46.9 °F 74% 29.91 in 10.0 mi NNE 4.6 mph - N/A   Clear
9:53 PM 51.1 °F 46.9 °F 86% 29.92 in 10.0 mi North 5.8 mph - N/A   Clear
10:53 PM 50.0 °F 46.0 °F 86% 29.91 in 10.0 mi North 6.9 mph - N/A   Clear
11:53 PM 50.0 °F 43.0 °F 77% 29.91 in 10.0 mi NE 9.2 mph - N/A   Clear